sat.trackr.live / text

‹ back to catalog

KUIPER-00623

NORAD 69780 · 2026-151T

PAYLOAD ACTIVE UNKNOWN

§ Identity

Operator
Country
US
Launch date
2026-07-02
Launch site
AFETR
Launch vehicle
Mass (kg)
RCS (m²)

External: N2YO · Heavens-Above · Gunter

§ Orbital elements

Epoch: 2026-09-19T13:26:21.828768Z

Period
97.30 min
Inclination
51.8973°
Eccentricity
0.0001229
Mean motion
14.79915960 rev/d
Perigee alt
628.7 km
Apogee alt
630.5 km
Semi-major
7,007.7 km
B*
7.4948e-5
RAAN
235.8619°
Arg perigee
102.5062°
Mean anomaly
257.6038°
Rev number
1,199

§ Raw data

KUIPER-006231 69780U 26151T   26262.55997487  .00000350  00000+0  74948-4 0  99902 69780  51.8973 235.8619 0001229 102.5062 257.6038 14.79915960 11991

JSON: /api/v1/satellites/69780 · /tle

For live sub-satellite position, see the globe view (requires WebGL).

§ Visibility from observer

Set your observer location to see the next 7 days of passes ≥ 10°. The values pass through the URL so the page stays shareable.

No JS? Fill the form by hand. The geolocation button needs JavaScript.